CW9754 Weather Reports


time (UTC)temp
C
wind
direction
speed
KPH
gust
KPH
rain 1hr
cm
rain 24hr
cm
rain mn
cm
humidity
%
barometer
mb
20260507200020 28 111 14.5 25.7 0.00 1.04 1.04 77 1014.8
20260507194502 28 109 14.5 27.4 0.00 1.04 1.04 77 1014.9
20260507193010 28 146 14.5 30.6 0.00 1.04 1.04 77 1015.1
20260507191525 29 137 14.5 25.7 0.00 1.04 1.04 77 1015.2
20260507190012 29 196 17.7 27.4 0.00 1.04 1.04 77 1015.3
20260507184529 29 122 14.5 27.4 0.00 1.04 1.04 76 1015.4
20260507183007 28 151 14.5 29.0 0.00 1.04 1.04 77 1015.5
20260507181504 29 165 11.3 35.4 0.00 1.04 1.04 77 1015.7
20260507180016 28 180 11.3 32.2 0.00 1.04 1.04 77 1015.8
20260507174521 29 113 16.1 27.4 0.00 1.04 1.04 75 1015.9
20260507173021 29 127 14.5 27.4 0.00 1.04 1.04 74 1016.1
20260507171521 29 144 14.5 29.0 0.00 1.04 1.04 77 1016.3
20260507170007 29 204 12.9 24.1 0.00 1.04 1.04 77 1016.6
20260507164510 28 134 14.5 25.7 0.00 1.04 1.04 76 1016.8
20260507163016 29 136 19.3 27.4 0.00 1.04 1.04 75 1017.0
20260507161529 29 107 11.3 25.7 0.00 1.04 1.04 77 1017.2
20260507160005 28 140 9.7 27.4 0.00 1.04 1.04 79 1017.3
20260507154505 28 124 11.3 25.7 0.00 1.04 1.04 79 1017.4
20260507153012 28 144 14.5 25.7 0.00 1.04 1.04 79 1017.5
20260507151525 28 166 16.1 24.1 0.03 1.04 1.04 79 1017.5
20260507150007 28 145 14.5 25.7 0.61 1.04 1.04 80 1017.6
20260507144508 27 134 16.1 24.1 0.61 1.04 1.04 83 1017.6
20260507143009 26 101 8.0 19.3 0.61 1.04 1.04 89 1017.7
20260507141524 26 148 3.2 32.2 0.58 1.02 1.02 87 1017.7
20260507140021 27 88 11.3 24.1 0.03 0.43 0.43 83 1017.8
20260507134503 27 103 8.0 22.5 0.03 0.43 0.43 81 1017.5
20260507133010 27 124 16.1 24.1 0.03 0.43 0.43 80 1017.5
20260507131521 27 121 11.3 17.7 0.03 0.43 0.43 85 1017.3
20260507130029 27 130 11.3 19.3 0.00 0.41 0.41 81 1017.4
20260507124523 27 144 12.9 20.9 0.00 0.41 0.41 81 1017.2
20260507123009 27 140 11.3 20.9 0.00 0.41 0.41 80 1017.0
20260507121512 27 124 9.7 20.9 0.00 0.41 0.41 83 1016.7
20260507120014 27 138 8.0 20.9 0.00 0.41 0.41 83 1016.7
20260507114525 27 133 8.0 24.1 0.00 0.41 0.41 85 1016.6
20260507113024 26 102 11.3 17.7 0.00 0.41 0.41 90 1016.6
20260507111510 25 121 4.8 12.9 0.00 0.41 0.41 91 1016.5
20260507110014 25 117 4.8 11.3 0.00 0.41 0.41 91 1016.4
20260507104518 25 41 3.2 9.7 0.41 0.41 0.41 91 1016.1
20260507103023 25 40 1.6 12.9 0.41 0.41 0.41 91 1016.1
20260507101506 25 54 4.8 9.7 0.41 0.41 0.41 90 1016.0
20260507100016 25 64 1.6 9.7 0.41 0.41 0.41 88 1016.1
20260507094518 25 39 3.2 8.0 0.00 0.00 0.00 86 1016.1
20260507093024 25 39 0.0 6.4 0.00 0.00 0.00 85 1015.9
20260507091506 25 39 1.6 8.0 0.00 0.00 0.00 85 1015.9
20260507090009 25 39 1.6 6.4 0.00 0.00 0.00 85 1015.8
20260507084513 26 39 3.2 9.7 0.00 0.00 0.00 85 1015.8
20260507083020 26 39 1.6 9.7 0.00 0.00 0.00 85 1015.7
20260507081523 26 39 3.2 8.0 0.00 0.00 0.00 85 1015.5
20260507080007 26 39 1.6 8.0 0.00 0.00 0.00 85 1015.5
20260507074509 26 39 1.6 8.0 0.00 0.00 0.00 85 1015.7
20260507073016 26 39 3.2 12.9 0.00 0.00 0.00 85 1015.8
20260507071521 26 39 4.8 12.9 0.00 0.00 0.00 85 1015.9
20260507070033 26 39 3.2 9.7 0.00 0.00 0.00 85 1015.9
20260507064509 26 39 4.8 12.9 0.00 0.00 0.00 85 1016.1
20260507063019 26 39 1.6 8.0 0.00 0.00 0.00 85 1016.2
20260507061520 26 39 3.2 6.4 0.00 0.00 0.00 84 1016.5
20260507060023 26 39 1.6 6.4 0.00 0.00 0.00 84 1016.6
20260507054534 26 39 1.6 6.4 0.00 0.00 0.00 83 1016.8
20260507053012 26 39 3.2 6.4 0.00 0.00 0.00 83 1017.1
20260507051517 26 39 0.0 8.0 0.00 0.00 0.00 82 1017.4
20260507050031 26 39 1.6 12.9 0.00 0.00 0.00 82 1017.6
20260507044533 26 39 6.4 14.5 0.00 0.00 0.00 83 1017.9
20260507043028 26 42 3.2 6.4 0.00 0.00 0.00 84 1018.0
20260507041523 26 42 1.6 6.4 0.00 0.00 0.00 85 1018.1
20260507040017 25 42 1.6 4.8 0.00 0.00 0.00 85 1018.2
20260507034524 25 42 0.0 6.4 0.00 0.00 0.00 85 1018.3
20260507033029 26 42 1.6 8.0 0.00 0.00 0.00 84 1018.3
20260507031530 26 42 1.6 4.8 0.00 0.00 0.00 84 1018.3
20260507030016 26 42 3.2 8.0 0.00 0.00 0.00 84 1018.4
20260507024524 26 42 3.2 6.4 0.00 0.00 0.00 83 1018.4
20260507023025 26 42 1.6 4.8 0.00 0.00 0.00 83 1018.4
20260507021503 26 42 1.6 6.4 0.00 0.00 0.00 83 1018.2
20260507020005 26 42 1.6 6.4 0.00 0.00 0.00 82 1018.4
20260507014506 26 42 3.2 8.0 0.00 0.00 0.00 82 1018.2
20260507013004 26 42 3.2 8.0 0.00 0.00 0.00 81 1018.1
20260507011506 26 42 3.2 6.4 0.00 0.00 0.00 81 1018.1
20260507010004 27 42 1.6 6.4 0.00 0.00 0.00 80 1018.0
20260507004515 27 42 3.2 8.0 0.00 0.00 0.00 80 1017.7
20260507003004 27 42 4.8 8.0 0.00 0.00 0.00 80 1017.6
20260507001504 27 76 0.0 9.7 0.00 0.00 0.00 80 1017.5
20260507000006 27 107 3.2 9.7 0.00 0.00 0.00 81 1017.4
20260506234506 27 90 4.8 11.3 0.00 0.00 0.00 81 1017.2
20260506233004 27 109 4.8 14.5 0.00 0.00 0.00 80 1017.2
20260506231517 27 149 4.8 11.3 0.00 0.00 0.00 80 1017.1
20260506230003 27 132 4.8 14.5 0.00 0.00 0.00 79 1016.9
20260506224505 27 121 4.8 14.5 0.00 0.00 0.00 79 1017.0
20260506223006 27 142 6.4 16.1 0.00 0.00 0.00 79 1016.7
20260506221504 28 108 6.4 14.5 0.00 0.00 0.00 78 1016.7
20260506220004 28 155 6.4 16.1 0.00 0.00 0.00 78 1016.6
20260506214507 28 163 8.0 16.1 0.00 0.00 0.00 77 1016.7
20260506213003 28 161 9.7 17.7 0.00 0.00 0.00 75 1016.6
20260506211513 28 134 11.3 17.7 0.00 0.00 0.00 76 1016.6
20260506210008 28 117 9.7 17.7 0.00 0.00 0.00 77 1016.4
20260506204506 28 139 9.7 24.1 0.00 0.00 0.00 78 1016.3
20260506203009 29 171 9.7 22.5 0.00 0.00 0.00 76 1016.2
20260506201511 29 150 9.7 20.9 0.00 0.00 0.00 77 1016.3